304  
SXUS52 KJAX 200713  
OSOJAX  
OTHER SURFACE OBSERVATIONS  
NATIONAL WEATHER SERVICE JACKSONVILLE FL  
300 AM EDT WED MAR 20 2019  
 
FLZ020>025-030>033-035>038-040-200800-   
..FLORIDA
 
 
 
CITY SKY/WX TMP DP RH WIND PRES REMARKS  
CECIL FIELD CLOUDY N/A N/A N/A NE10 30.16F  
HERLONG FIELD NOT AVBL  
FERNANDINA BCH NOT AVBL  
LAKE CITY CLOUDY 52 41 66 NE8 30.18S  
JUNIPER SPGS NOT AVBL  
BUNNELL NOT AVBL  
KEYSTONE HGTS CLOUDY 55 39 54 NE9 30.14F  

 
 
GAZ132>136-149>154-162>166-200800-   
..GEORGIA
 
 
 
CITY SKY/WX TMP DP RH WIND PRES REMARKS  
JESUP FAIR 46 32 57 NE6 30.23F  
HOMERVILLE NOT AVBL  
SWAINSBORO FAIR 43 32 65 NE6 30.26F  
CORDELE NOT AVBL  
EASTMAN FAIR 38 34 87 CALM 30.28F  

 
 
PLEASE NOTE: THESE OBSERVATIONS ARE NOT QUALITY CONTROLLED AND MAY  
NOT BE AVAILABLE AT ALL TIMES.  

 
 
 
CLICK HERE TO GO TO PREVIOUS BULLETINS.

The Nexlab FL Page
The Nexlab GA Page Main Text Page